* Astronomy

Members Login
Username 
 
Password 
    Remember Me  
Post Info TOPIC: Kosmos-2479 satellite


L

Posts: 131433
Date:
Kosmos-2479 satellite
Permalink  
 


  Russian military satellite launched from Baikonur

A military satellite has been launched from the Baikonur cosmodrome with the use of a Proton-K carrier rocket.
Read more

 

KOSMOS2479
1 38101U 12012A   12090.72870050 -.00000138  00000-0  10000-3 0    33
2 38101 002.2690 285.2443 0003996 222.7938 032.5178 00.99814877    01


__________________
Page 1 of 1  sorted by
 
Quick Reply

Please log in to post quick replies.



Create your own FREE Forum
Report Abuse
Powered by ActiveBoard